Time,TemperatureF,DewpointF,PressureIn,WindDirection,WindDirectionDegrees,WindSpeedMPH,WindSpeedGustMPH,Humidity,HourlyPrecipIn,Conditions,Clouds,dailyrainin,SoftwareType,DateUTC
2013-05-24 00:03:00,59.0,51.0,30.01,West,277,0.0,1.0,75,0.00,,,0.04,,2013-05-24 04:03:00,
2013-05-24 00:12:00,59.0,51.0,30.01,West,277,0.0,1.0,75,0.00,,,0.04,,2013-05-24 04:12:00,
2013-05-24 00:23:00,59.0,51.0,30.01,WNW,290,1.0,9.0,75,0.00,,,0.04,,2013-05-24 04:23:00,
2013-05-24 00:33:00,59.0,52.0,30.00,SSW,208,1.0,5.0,77,0.00,,,0.04,,2013-05-24 04:33:00,
2013-05-24 00:42:00,59.0,52.0,30.00,SSW,208,1.0,5.0,77,0.00,,,0.04,,2013-05-24 04:42:00,
2013-05-24 00:53:00,58.0,50.0,29.99,WNW,302,1.0,10.0,75,0.00,,,0.04,,2013-05-24 04:53:00,
2013-05-24 01:02:00,58.0,50.0,30.00,WNW,300,1.0,4.0,76,0.00,,,0.04,,2013-05-24 05:02:00,
2013-05-24 01:12:00,58.0,50.0,30.00,WNW,300,1.0,4.0,76,0.00,,,0.04,,2013-05-24 05:12:00,
2013-05-24 01:22:00,58.0,50.0,30.00,WNW,285,3.0,10.0,76,0.00,,,0.04,,2013-05-24 05:22:00,
2013-05-24 01:32:00,58.0,51.0,30.00,West,262,0.0,4.0,77,0.00,,,0.04,,2013-05-24 05:32:00,
2013-05-24 01:42:00,58.0,51.0,30.00,West,262,0.0,4.0,77,0.00,,,0.04,,2013-05-24 05:42:00,
2013-05-24 01:52:00,58.0,51.0,30.00,West,266,0.0,5.0,77,0.00,,,0.04,,2013-05-24 05:52:00,
2013-05-24 02:02:00,58.0,51.0,30.01,SSW,200,0.0,5.0,78,0.00,,,0.04,,2013-05-24 06:02:00,
2013-05-24 02:12:00,58.0,51.0,30.01,SSW,200,0.0,5.0,78,0.00,,,0.04,,2013-05-24 06:12:00,
2013-05-24 02:21:00,57.0,50.0,30.00,West,277,2.0,7.0,76,0.00,,,0.03,,2013-05-24 06:21:00,
2013-05-24 02:32:00,57.0,50.0,30.00,WNW,293,1.0,6.0,76,0.00,,,0.03,,2013-05-24 06:32:00,
2013-05-24 02:42:00,57.0,50.0,30.00,WNW,293,1.0,6.0,76,0.00,,,0.03,,2013-05-24 06:42:00,
2013-05-24 02:52:00,57.0,49.0,30.00,NNW,337,3.0,7.0,75,0.00,,,0.03,,2013-05-24 06:52:00,
2013-05-24 03:01:00,57.0,50.0,30.01,NNW,347,0.0,2.0,78,0.00,,,0.03,,2013-05-24 07:01:00,
2013-05-24 03:11:00,57.0,50.0,30.01,NNW,347,0.0,2.0,78,0.00,,,0.03,,2013-05-24 07:11:00,
2013-05-24 03:22:00,57.0,49.0,30.01,NW,317,1.0,4.0,75,0.00,,,0.03,,2013-05-24 07:22:00,
2013-05-24 03:32:00,57.0,50.0,30.00,WSW,252,1.0,5.0,76,0.00,,,0.03,,2013-05-24 07:32:00,
2013-05-24 03:42:00,57.0,50.0,30.00,WSW,252,1.0,5.0,76,0.00,,,0.03,,2013-05-24 07:42:00,
2013-05-24 03:52:00,56.0,49.0,30.01,West,267,0.0,3.0,78,0.00,,,0.03,,2013-05-24 07:52:00,
2013-05-24 04:02:00,56.0,49.0,30.01,NW,321,0.0,10.0,76,0.00,,,0.03,,2013-05-24 08:02:00,
2013-05-24 04:11:00,56.0,49.0,30.01,NW,321,0.0,10.0,76,0.00,,,0.03,,2013-05-24 08:11:00,
2013-05-24 04:22:00,56.0,47.0,30.01,NW,326,0.0,9.0,73,0.00,,,0.03,,2013-05-24 08:22:00,
2013-05-24 04:33:00,56.0,49.0,30.01,West,268,0.0,4.0,77,0.00,,,0.03,,2013-05-24 08:33:00,
2013-05-24 04:42:00,56.0,49.0,30.01,West,268,0.0,4.0,77,0.00,,,0.03,,2013-05-24 08:42:00,
2013-05-24 04:52:00,56.0,48.0,30.02,NNW,331,1.0,8.0,75,0.00,,,0.03,,2013-05-24 08:52:00,
2013-05-24 05:02:00,56.0,50.0,30.02,NNW,330,0.0,0.0,80,0.00,,,0.03,,2013-05-24 09:02:00,
2013-05-24 05:11:00,56.0,50.0,30.02,NNW,330,0.0,0.0,80,0.00,,,0.03,,2013-05-24 09:11:00,
2013-05-24 05:22:00,55.0,48.0,30.03,West,266,0.0,3.0,78,0.00,,,0.03,,2013-05-24 09:22:00,
2013-05-24 05:32:00,55.0,48.0,30.02,NW,309,0.0,3.0,78,0.00,,,0.03,,2013-05-24 09:32:00,
2013-05-24 05:42:00,55.0,48.0,30.02,NW,309,0.0,3.0,78,0.00,,,0.03,,2013-05-24 09:42:00,
2013-05-24 05:53:00,54.0,48.0,30.02,NW,307,0.0,3.0,80,0.00,,,0.03,,2013-05-24 09:53:00,
2013-05-24 06:03:00,54.0,48.0,30.02,NW,307,0.0,0.0,79,0.00,,,0.03,,2013-05-24 10:03:00,
2013-05-24 06:12:00,54.0,48.0,30.02,NW,307,0.0,0.0,79,0.00,,,0.03,,2013-05-24 10:12:00,
2013-05-24 06:22:00,54.0,48.0,30.02,NW,307,0.0,1.0,81,0.00,,,0.01,,2013-05-24 10:22:00,
2013-05-24 06:33:00,54.0,48.0,30.02,West,265,1.0,5.0,81,0.00,,,0.01,,2013-05-24 10:33:00,
2013-05-24 06:42:00,54.0,48.0,30.02,West,265,1.0,5.0,81,0.00,,,0.01,,2013-05-24 10:42:00,
2013-05-24 06:53:00,54.0,49.0,30.03,WSW,255,0.0,3.0,83,0.00,,,0.01,,2013-05-24 10:53:00,
2013-05-24 07:02:00,54.0,49.0,30.03,WSW,255,0.0,3.0,83,0.00,,,0.01,,2013-05-24 11:02:00,
2013-05-24 07:12:00,54.0,49.0,30.03,WSW,255,0.0,3.0,83,0.00,,,0.01,,2013-05-24 11:12:00,
2013-05-24 07:22:00,54.0,50.0,30.03,WNW,295,0.0,1.0,85,0.00,,,0.01,,2013-05-24 11:22:00,
2013-05-24 07:32:00,54.0,50.0,30.04,WNW,295,0.0,0.0,87,0.00,,,0.01,,2013-05-24 11:32:00,
2013-05-24 07:42:00,54.0,50.0,30.04,WNW,295,0.0,0.0,87,0.00,,,0.01,,2013-05-24 11:42:00,
2013-05-24 07:52:00,54.0,51.0,30.04,WNW,295,0.0,0.0,88,0.00,,,0.01,,2013-05-24 11:52:00,
2013-05-24 08:02:00,54.0,50.0,30.05,WNW,295,0.0,0.0,86,0.00,,,0.01,,2013-05-24 12:02:00,
2013-05-24 08:11:00,54.0,50.0,30.05,WNW,295,0.0,0.0,86,0.00,,,0.01,,2013-05-24 12:11:00,
2013-05-24 08:22:00,54.0,50.0,30.05,WNW,295,0.0,0.0,86,0.00,,,0.01,,2013-05-24 12:22:00,
2013-05-24 08:32:00,55.0,52.0,30.06,NE,44,0.0,3.0,89,0.00,,,0.01,,2013-05-24 12:32:00,
2013-05-24 08:42:00,55.0,52.0,30.06,NE,44,0.0,3.0,89,0.00,,,0.01,,2013-05-24 12:42:00,
2013-05-24 08:52:00,55.0,51.0,30.06,South,182,0.0,4.0,86,0.00,,,0.01,,2013-05-24 12:52:00,
2013-05-24 09:02:00,55.0,50.0,30.08,SE,134,0.0,8.0,83,0.00,,,0.01,,2013-05-24 13:02:00,
2013-05-24 09:11:00,55.0,50.0,30.08,SE,134,0.0,8.0,83,0.00,,,0.01,,2013-05-24 13:11:00,
2013-05-24 09:22:00,55.0,49.0,30.09,ESE,108,1.0,8.0,79,0.00,,,0.01,,2013-05-24 13:22:00,
2013-05-24 09:32:00,56.0,49.0,30.10,ESE,118,1.0,6.0,76,0.00,,,0.01,,2013-05-24 13:32:00,
2013-05-24 09:42:00,56.0,49.0,30.10,ESE,118,1.0,6.0,76,0.00,,,0.01,,2013-05-24 13:42:00,
2013-05-24 09:52:00,56.0,50.0,30.11,NNE,15,0.0,7.0,79,0.00,,,0.01,,2013-05-24 13:52:00,
2013-05-24 10:01:00,56.0,47.0,30.11,ESE,121,2.0,8.0,73,0.00,,,0.01,,2013-05-24 14:01:00,
2013-05-24 10:11:00,56.0,47.0,30.11,ESE,121,2.0,8.0,73,0.00,,,0.01,,2013-05-24 14:11:00,
2013-05-24 10:21:00,56.0,47.0,30.12,NNW,336,2.0,9.0,71,0.00,,,0.01,,2013-05-24 14:21:00,
2013-05-24 10:32:00,58.0,47.0,30.12,WNW,295,2.0,6.0,67,0.00,,,0.01,,2013-05-24 14:32:00,
2013-05-24 10:42:00,58.0,47.0,30.12,WNW,295,2.0,6.0,67,0.00,,,0.01,,2013-05-24 14:42:00,
2013-05-24 10:52:00,57.0,46.0,30.13,ENE,71,2.0,9.0,66,0.00,,,0.01,,2013-05-24 14:52:00,
2013-05-24 11:02:00,57.0,46.0,30.14,East,93,2.0,14.0,66,0.00,,,0.01,,2013-05-24 15:02:00,
2013-05-24 11:11:00,57.0,46.0,30.14,East,93,2.0,14.0,66,0.00,,,0.01,,2013-05-24 15:11:00,
2013-05-24 11:22:00,57.0,45.0,30.14,NNW,346,2.0,9.0,63,0.00,,,0.01,,2013-05-24 15:22:00,
2013-05-24 11:33:00,57.0,49.0,30.16,NW,310,1.0,5.0,75,0.00,,,0.01,,2013-05-24 15:33:00,
2013-05-24 11:43:00,57.0,49.0,30.16,NW,310,1.0,5.0,75,0.00,,,0.01,,2013-05-24 15:43:00,
2013-05-24 11:52:00,57.0,49.0,30.16,NW,310,1.0,5.0,75,0.00,,,0.01,,2013-05-24 15:52:00,
2013-05-24 12:03:00,61.0,47.0,30.16,NW,323,2.0,5.0,59,0.00,,,0.01,,2013-05-24 16:03:00,
2013-05-24 12:13:00,61.0,47.0,30.16,NW,323,2.0,5.0,59,0.00,,,0.01,,2013-05-24 16:13:00,
2013-05-24 12:22:00,62.0,47.0,30.16,North,354,1.0,6.0,58,0.00,,,0.01,,2013-05-24 16:22:00,
2013-05-24 12:32:00,63.0,46.0,30.17,NNE,27,3.0,9.0,53,0.00,,,0.01,,2013-05-24 16:32:00,
2013-05-24 12:42:00,63.0,46.0,30.17,NNE,27,3.0,9.0,53,0.00,,,0.01,,2013-05-24 16:42:00,
2013-05-24 12:52:00,64.0,43.0,30.17,NNW,339,4.0,10.0,47,0.00,,,0.01,,2013-05-24 16:52:00,
2013-05-24 13:02:00,64.0,42.0,30.16,ENE,77,1.0,8.0,44,0.00,,,0.01,,2013-05-24 17:02:00,
2013-05-24 13:12:00,64.0,42.0,30.16,ENE,77,1.0,8.0,44,0.00,,,0.01,,2013-05-24 17:12:00,
2013-05-24 13:22:00,62.0,37.0,30.17,West,261,4.0,12.0,39,0.00,,,0.00,,2013-05-24 17:22:00,
2013-05-24 13:32:00,63.0,36.0,30.18,North,353,4.0,11.0,37,0.00,,,0.00,,2013-05-24 17:32:00,
2013-05-24 13:42:00,63.0,36.0,30.18,North,353,4.0,11.0,37,0.00,,,0.00,,2013-05-24 17:42:00,
2013-05-24 13:52:00,64.0,39.0,30.18,NNE,26,4.0,16.0,40,0.00,,,0.00,,2013-05-24 17:52:00,
2013-05-24 14:01:00,65.0,38.0,30.18,ENE,69,2.0,14.0,37,0.00,,,0.00,,2013-05-24 18:01:00,
2013-05-24 14:12:00,65.0,38.0,30.18,ENE,69,2.0,14.0,37,0.00,,,0.00,,2013-05-24 18:12:00,
2013-05-24 14:22:00,65.0,34.0,30.18,NNE,17,3.0,12.0,32,0.00,,,0.00,,2013-05-24 18:22:00,
2013-05-24 14:32:00,66.0,33.0,30.19,NE,39,4.0,12.0,29,0.00,,,0.00,,2013-05-24 18:32:00,
2013-05-24 14:42:00,66.0,33.0,30.19,NE,39,4.0,12.0,29,0.00,,,0.00,,2013-05-24 18:42:00,
2013-05-24 14:52:00,65.0,39.0,30.18,SE,126,1.0,17.0,38,0.00,,,0.00,,2013-05-24 18:52:00,
2013-05-24 15:01:00,67.0,32.0,30.19,NNE,23,3.0,10.0,27,0.00,,,0.00,,2013-05-24 19:01:00,
2013-05-24 15:11:00,67.0,32.0,30.19,NNE,23,3.0,10.0,27,0.00,,,0.00,,2013-05-24 19:11:00,
2013-05-24 15:21:00,68.0,35.0,30.19,East,93,2.0,13.0,30,0.00,,,0.00,,2013-05-24 19:21:00,
2013-05-24 15:32:00,69.0,33.0,30.19,North,11,4.0,11.0,26,0.00,,,0.00,,2013-05-24 19:32:00,
2013-05-24 15:42:00,69.0,33.0,30.19,North,11,4.0,11.0,26,0.00,,,0.00,,2013-05-24 19:42:00,
2013-05-24 15:52:00,69.0,36.0,30.19,SW,216,0.0,13.0,30,0.00,,,0.00,,2013-05-24 19:52:00,
2013-05-24 16:02:00,70.0,36.0,30.19,ENE,59,3.0,7.0,29,0.00,,,0.00,,2013-05-24 20:02:00,
2013-05-24 16:12:00,70.0,36.0,30.19,ENE,59,3.0,7.0,29,0.00,,,0.00,,2013-05-24 20:12:00,
2013-05-24 16:22:00,70.0,36.0,30.19,West,263,4.0,10.0,29,0.00,,,0.00,,2013-05-24 20:22:00,
2013-05-24 16:32:00,70.0,33.0,30.19,NW,307,2.0,7.0,25,0.00,,,0.00,,2013-05-24 20:32:00,
2013-05-24 16:42:00,70.0,33.0,30.19,NW,307,2.0,7.0,25,0.00,,,0.00,,2013-05-24 20:42:00,
2013-05-24 16:52:00,71.0,37.0,30.19,ENE,68,0.0,4.0,29,0.00,,,0.00,,2013-05-24 20:52:00,
2013-05-24 17:01:00,70.0,28.0,30.20,NE,44,4.0,10.0,21,0.00,,,0.00,,2013-05-24 21:01:00,
2013-05-24 17:11:00,70.0,28.0,30.20,NE,44,4.0,10.0,21,0.00,,,0.00,,2013-05-24 21:11:00,
2013-05-24 17:21:00,67.0,30.0,30.20,ESE,105,2.0,7.0,25,0.00,,,0.00,,2013-05-24 21:21:00,
2013-05-24 17:33:00,67.0,28.0,30.20,NNE,27,1.0,7.0,23,0.00,,,0.00,,2013-05-24 21:33:00,
2013-05-24 17:42:00,67.0,28.0,30.20,NNE,27,1.0,7.0,23,0.00,,,0.00,,2013-05-24 21:42:00,
2013-05-24 17:53:00,66.0,30.0,30.21,ENE,63,2.0,7.0,26,0.00,,,0.00,,2013-05-24 21:53:00,
2013-05-24 18:03:00,65.0,31.0,30.21,East,91,1.0,5.0,28,0.00,,,0.00,,2013-05-24 22:03:00,
2013-05-24 18:12:00,65.0,31.0,30.21,East,91,1.0,5.0,28,0.00,,,0.00,,2013-05-24 22:12:00,
2013-05-24 18:22:00,64.0,39.0,30.22,NW,310,1.0,9.0,39,0.00,,,0.00,,2013-05-24 22:22:00,
2013-05-24 18:33:00,64.0,31.0,30.22,NW,309,2.0,7.0,29,0.00,,,0.00,,2013-05-24 22:33:00,
2013-05-24 18:42:00,64.0,31.0,30.22,NW,309,2.0,7.0,29,0.00,,,0.00,,2013-05-24 22:42:00,
2013-05-24 18:52:00,63.0,29.0,30.22,NW,313,6.0,13.0,27,0.00,,,0.00,,2013-05-24 22:52:00,
2013-05-24 19:02:00,62.0,35.0,30.22,SW,236,0.0,7.0,36,0.00,,,0.00,,2013-05-24 23:02:00,
2013-05-24 19:11:00,62.0,35.0,30.22,SW,236,0.0,7.0,36,0.00,,,0.00,,2013-05-24 23:11:00,
2013-05-24 19:22:00,62.0,33.0,30.22,West,270,1.0,5.0,34,0.00,,,0.00,,2013-05-24 23:22:00,
2013-05-24 19:32:00,61.0,38.0,30.22,WNW,283,0.0,4.0,42,0.00,,,0.00,,2013-05-24 23:32:00,
2013-05-24 19:42:00,61.0,38.0,30.22,WNW,283,0.0,4.0,42,0.00,,,0.00,,2013-05-24 23:42:00,
2013-05-24 19:52:00,60.0,30.0,30.23,WSW,238,1.0,8.0,32,0.00,,,0.00,,2013-05-24 23:52:00,
2013-05-24 20:01:00,59.0,35.0,30.23,NNW,328,0.0,2.0,41,0.00,,,0.00,,2013-05-25 00:01:00,
2013-05-24 20:12:00,59.0,35.0,30.23,NNW,328,0.0,2.0,41,0.00,,,0.00,,2013-05-25 00:12:00,
2013-05-24 20:22:00,58.0,33.0,30.24,West,281,0.0,9.0,38,0.00,,,0.00,,2013-05-25 00:22:00,
2013-05-24 20:32:00,58.0,34.0,30.24,West,262,0.0,2.0,40,0.00,,,0.00,,2013-05-25 00:32:00,
2013-05-24 20:42:00,58.0,34.0,30.24,West,262,0.0,2.0,40,0.00,,,0.00,,2013-05-25 00:42:00,
2013-05-24 20:52:00,57.0,34.0,30.24,WSW,244,0.0,2.0,41,0.00,,,0.00,,2013-05-25 00:52:00,
2013-05-24 21:01:00,56.0,35.0,30.24,NW,321,0.0,1.0,45,0.00,,,0.00,,2013-05-25 01:01:00,
2013-05-24 21:11:00,56.0,35.0,30.24,NW,321,0.0,1.0,45,0.00,,,0.00,,2013-05-25 01:11:00,
2013-05-24 21:22:00,55.0,35.0,30.24,SW,214,0.0,3.0,47,0.00,,,0.00,,2013-05-25 01:22:00,
2013-05-24 21:32:00,55.0,36.0,30.24,SW,214,0.0,1.0,48,0.00,,,0.00,,2013-05-25 01:32:00,
2013-05-24 21:42:00,55.0,36.0,30.24,SW,214,0.0,1.0,48,0.00,,,0.00,,2013-05-25 01:42:00,
2013-05-24 21:52:00,53.0,35.0,30.24,SSW,213,0.0,1.0,50,0.00,,,0.00,,2013-05-25 01:52:00,
2013-05-24 22:02:00,53.0,35.0,30.24,SSW,213,0.0,1.0,50,0.00,,,0.00,,2013-05-25 02:02:00,
2013-05-24 22:12:00,53.0,35.0,30.24,SSW,213,0.0,1.0,50,0.00,,,0.00,,2013-05-25 02:12:00,
2013-05-24 22:21:00,51.0,36.0,30.26,WNW,283,0.0,0.0,56,0.00,,,0.00,,2013-05-25 02:21:00,
2013-05-24 22:32:00,51.0,35.0,30.26,WNW,292,0.0,5.0,54,0.00,,,0.00,,2013-05-25 02:32:00,
2013-05-24 22:42:00,51.0,35.0,30.26,WNW,292,0.0,5.0,54,0.00,,,0.00,,2013-05-25 02:42:00,
2013-05-24 22:52:00,51.0,37.0,30.27,East,83,0.0,2.0,58,0.00,,,0.00,,2013-05-25 02:52:00,
2013-05-24 23:02:00,51.0,34.0,30.27,NE,42,1.0,4.0,53,0.00,,,0.00,,2013-05-25 03:02:00,
2013-05-24 23:11:00,51.0,34.0,30.27,NE,42,1.0,4.0,53,0.00,,,0.00,,2013-05-25 03:11:00,
2013-05-24 23:22:00,51.0,34.0,30.27,WNW,288,0.0,3.0,53,0.00,,,0.00,,2013-05-25 03:22:00,
2013-05-24 23:32:00,51.0,34.0,30.27,WNW,288,0.0,3.0,53,0.00,,,0.00,,2013-05-25 03:32:00,
2013-05-24 23:43:00,51.0,34.0,30.27,WNW,288,0.0,3.0,53,0.00,,,0.00,,2013-05-25 03:43:00,
2013-05-24 23:53:00,51.0,37.0,30.29,West,260,0.0,3.0,58,0.00,,,0.00,,2013-05-25 03:53:00,